APRIZESAT 4

Last updated on Tue Sep 22 2026 00:03:30 GMT+0000 (Coordinated Universal Time)

1 35684U 09041D 26264.14136299 .00000355 00000+0 49027-4 0 9993 2 35684 98.1339 341.3399 0043398 12.1215 348.1032 14.83995108925591
UTC large
Height (km)
Speed (km/s)
/
Latitude / Longitude
Inclination (degrees)
Orbital Period (minutes)
Azimuth
Elevation
Range (km)
Doppler Factor

Next 0 passes for location: London (51.5072 / 0.1276)

No passes found over London.
APRIZESAT 4